{"data":{"norad_id":67366,"epoch":"2026-09-20T23:39:38.236608Z","epoch_age_seconds":60367,"freshness":"FRESH","line1":"1 67366U 26004D   26263.98585922  .00002155  00000+0  23535-3 0  9990","line2":"2 67366  97.8081 261.1434 0008686 169.2869 190.8535 14.88905170 37546","mean_motion":14.8890517,"eccentricity":0.0008686,"inclination_deg":97.8081,"raan_deg":261.1434,"arg_perigee_deg":169.2869,"mean_anomaly_deg":190.8535,"bstar":0.00023535,"rev_number":3754,"period_min":96.715360320765,"perigee_km":595.29264911862,"apogee_km":607.41742268338,"semimajor_km":6979.492035901,"source":"CELESTRAK","updated_at":"2026-09-21T09:00:16.591500Z"}}